Time,TemperatureF,DewpointF,PressureIn,WindDirection,WindDirectionDegrees,WindSpeedMPH,WindSpeedGustMPH,Humidity,HourlyPrecipIn,Conditions,Clouds,dailyrainin,SoftwareType,DateUTC
2013-06-21 00:02:00,70.3,60.1,29.18,SSW,208,0.0,0.0,70,0.00,,SKC,0.00,VWS V14.00,2013-06-21 04:02:00,
2013-06-21 00:07:00,70.3,60.1,29.15,SSW,208,0.0,0.0,70,0.00,,SKC,0.00,VWS V14.00,2013-06-21 04:07:00,
2013-06-21 00:12:00,70.2,59.9,29.15,SSW,208,0.0,0.0,70,0.00,,SKC,0.00,VWS V14.00,2013-06-21 04:12:00,
2013-06-21 00:17:00,70.2,59.9,29.15,SSW,208,0.0,0.0,70,0.00,,SKC,0.00,VWS V14.00,2013-06-21 04:17:00,
2013-06-21 00:22:00,70.2,60.3,29.15,SSW,208,0.0,0.0,71,0.00,,SKC,0.00,VWS V14.00,2013-06-21 04:22:00,
2013-06-21 00:27:00,70.2,60.3,29.15,SSW,206,0.0,0.0,71,0.00,,SKC,0.00,VWS V14.00,2013-06-21 04:27:00,
2013-06-21 00:29:00,70.2,60.3,29.15,SW,224,0.0,0.0,71,0.00,,SKC,0.00,VWS V14.00,2013-06-21 04:29:00,
2013-06-21 00:38:00,70.2,60.3,29.15,SW,224,0.0,0.0,71,0.00,,SKC,0.00,VWS V14.00,2013-06-21 04:38:00,
2013-06-21 00:43:00,70.2,60.3,29.15,SW,224,0.0,0.0,71,0.00,,SKC,0.00,VWS V14.00,2013-06-21 04:43:00,
2013-06-21 00:48:00,70.2,60.3,29.15,SW,224,0.0,0.0,71,0.00,,SKC,0.00,VWS V14.00,2013-06-21 04:48:00,
2013-06-21 00:53:00,70.0,60.5,29.18,SW,224,0.0,0.0,72,0.00,,SKC,0.00,VWS V14.00,2013-06-21 04:53:00,
2013-06-21 00:58:00,70.2,60.7,29.18,SW,224,0.0,0.0,72,0.00,,SKC,0.00,VWS V14.00,2013-06-21 04:58:00,
2013-06-21 00:59:00,70.2,60.7,29.18,SW,224,0.0,0.0,72,0.00,,SKC,0.00,VWS V14.00,2013-06-21 04:59:00,
2013-06-21 01:08:00,70.0,60.5,29.15,SW,224,0.0,0.0,72,0.00,,SKC,0.00,VWS V14.00,2013-06-21 05:08:00,
2013-06-21 01:13:00,70.0,60.5,29.15,SW,224,0.0,0.0,72,0.00,,SKC,0.00,VWS V14.00,2013-06-21 05:13:00,
2013-06-21 01:18:00,70.0,60.5,29.15,SW,224,0.0,0.0,72,0.00,,SKC,0.00,VWS V14.00,2013-06-21 05:18:00,
2013-06-21 01:23:00,70.0,60.5,29.15,SW,224,0.0,0.0,72,0.00,,SKC,0.00,VWS V14.00,2013-06-21 05:23:00,
2013-06-21 01:28:00,70.0,60.9,29.15,SW,224,0.0,0.0,73,0.00,,SKC,0.00,VWS V14.00,2013-06-21 05:28:00,
2013-06-21 01:33:00,70.0,60.9,29.15,SW,224,0.0,0.0,73,0.00,,SKC,0.00,VWS V14.00,2013-06-21 05:33:00,
2013-06-21 01:38:00,70.0,60.9,29.15,SW,224,0.0,0.0,73,0.00,,SKC,0.00,VWS V14.00,2013-06-21 05:38:00,
2013-06-21 01:43:00,69.8,60.8,29.15,SW,224,0.0,0.0,73,0.00,,SKC,0.00,VWS V14.00,2013-06-21 05:43:00,
2013-06-21 01:48:00,69.8,60.8,29.15,SW,224,0.0,0.0,73,0.00,,SKC,0.00,VWS V14.00,2013-06-21 05:48:00,
2013-06-21 01:53:00,69.8,61.2,29.15,SW,224,0.0,0.0,74,0.00,,SKC,0.00,VWS V14.00,2013-06-21 05:53:00,
2013-06-21 01:58:00,69.8,61.2,29.15,SW,224,0.0,0.0,74,0.00,,SKC,0.00,VWS V14.00,2013-06-21 05:58:00,
2013-06-21 02:03:00,69.8,61.2,29.15,SW,224,0.0,0.0,74,0.00,,SKC,0.00,VWS V14.00,2013-06-21 06:03:00,
2013-06-21 02:08:00,69.8,61.2,29.15,SW,224,0.0,0.0,74,0.00,,SKC,0.00,VWS V14.00,2013-06-21 06:08:00,
2013-06-21 02:13:00,69.8,61.2,29.15,SW,224,0.0,0.0,74,0.00,,SKC,0.00,VWS V14.00,2013-06-21 06:13:00,
2013-06-21 02:18:00,70.0,61.3,29.15,SW,224,0.0,0.0,74,0.00,,SKC,0.00,VWS V14.00,2013-06-21 06:18:00,
2013-06-21 02:23:00,69.8,61.2,29.15,SW,224,0.0,0.0,74,0.00,,SKC,0.00,VWS V14.00,2013-06-21 06:23:00,
2013-06-21 02:28:00,69.8,61.2,29.15,SW,224,0.0,0.0,74,0.00,,SKC,0.00,VWS V14.00,2013-06-21 06:28:00,
2013-06-21 02:33:00,70.0,61.3,29.15,SW,224,0.0,0.0,74,0.00,,SKC,0.00,VWS V14.00,2013-06-21 06:33:00,
2013-06-21 02:38:00,69.8,61.5,29.15,SW,224,0.0,0.0,75,0.00,,SKC,0.00,VWS V14.00,2013-06-21 06:38:00,
2013-06-21 02:43:00,69.8,61.5,29.15,SW,224,0.0,0.0,75,0.00,,SKC,0.00,VWS V14.00,2013-06-21 06:43:00,
2013-06-21 02:48:00,69.8,61.5,29.15,SW,224,0.0,0.0,75,0.00,,SKC,0.00,VWS V14.00,2013-06-21 06:48:00,
2013-06-21 02:53:00,69.8,61.5,29.15,SW,224,0.0,0.0,75,0.00,,SKC,0.00,VWS V14.00,2013-06-21 06:53:00,
2013-06-21 02:58:00,69.8,61.5,29.15,SW,224,0.0,0.0,75,0.00,,SKC,0.00,VWS V14.00,2013-06-21 06:58:00,
2013-06-21 03:03:00,69.8,61.5,29.15,SW,224,0.0,0.0,75,0.00,,SKC,0.00,VWS V14.00,2013-06-21 07:03:00,
2013-06-21 03:08:00,69.8,61.5,29.15,SW,224,0.0,0.0,75,0.00,,SKC,0.00,VWS V14.00,2013-06-21 07:08:00,
2013-06-21 03:13:00,69.8,61.5,29.15,SW,224,0.0,0.0,75,0.00,,SKC,0.00,VWS V14.00,2013-06-21 07:13:00,
2013-06-21 03:18:00,69.8,61.9,29.15,SW,224,0.0,0.0,76,0.00,,SKC,0.00,VWS V14.00,2013-06-21 07:18:00,
2013-06-21 03:23:00,69.8,61.9,29.15,SW,224,0.0,0.0,76,0.00,,SKC,0.00,VWS V14.00,2013-06-21 07:23:00,
2013-06-21 03:28:00,69.8,61.9,29.15,SW,224,0.0,0.0,76,0.00,,SKC,0.00,VWS V14.00,2013-06-21 07:28:00,
2013-06-21 03:33:00,69.8,61.9,29.15,SW,224,0.0,0.0,76,0.00,,SKC,0.00,VWS V14.00,2013-06-21 07:33:00,
2013-06-21 03:38:00,69.8,61.9,29.15,SW,224,0.0,0.0,76,0.00,,SKC,0.00,VWS V14.00,2013-06-21 07:38:00,
2013-06-21 03:43:00,69.6,61.7,29.15,SW,224,0.0,0.0,76,0.00,,SKC,0.00,VWS V14.00,2013-06-21 07:43:00,
2013-06-21 03:48:00,69.6,62.1,29.15,SW,224,0.0,0.0,77,0.00,,SKC,0.00,VWS V14.00,2013-06-21 07:48:00,
2013-06-21 03:53:00,69.6,62.1,29.15,SW,224,0.0,0.0,77,0.00,,SKC,0.00,VWS V14.00,2013-06-21 07:53:00,
2013-06-21 03:58:00,69.6,62.1,29.15,SW,224,0.0,0.0,77,0.00,,SKC,0.00,VWS V14.00,2013-06-21 07:58:00,
2013-06-21 04:03:00,69.6,62.1,29.15,SW,224,0.0,0.0,77,0.00,,SKC,0.00,VWS V14.00,2013-06-21 08:03:00,
2013-06-21 04:08:00,69.6,62.1,29.15,SW,224,0.0,0.0,77,0.00,,SKC,0.00,VWS V14.00,2013-06-21 08:08:00,
2013-06-21 04:13:00,69.6,62.1,29.15,SW,224,0.0,0.0,77,0.00,,SKC,0.00,VWS V14.00,2013-06-21 08:13:00,
2013-06-21 04:18:00,69.6,62.1,29.15,SW,224,0.0,0.0,77,0.00,,SKC,0.00,VWS V14.00,2013-06-21 08:18:00,
2013-06-21 04:23:00,69.4,61.9,29.15,SW,224,0.0,0.0,77,0.00,,SKC,0.00,VWS V14.00,2013-06-21 08:23:00,
2013-06-21 04:28:00,69.4,61.9,29.15,SW,224,0.0,0.0,77,0.00,,SKC,0.00,VWS V14.00,2013-06-21 08:28:00,
2013-06-21 04:33:00,69.4,62.3,29.15,SW,224,0.0,0.0,78,0.00,,SKC,0.00,VWS V14.00,2013-06-21 08:33:00,
2013-06-21 04:38:00,69.4,62.3,29.15,SW,224,0.0,0.0,78,0.00,,SKC,0.00,VWS V14.00,2013-06-21 08:38:00,
2013-06-21 04:43:00,69.4,62.3,29.15,SW,224,0.0,0.0,78,0.00,,SKC,0.00,VWS V14.00,2013-06-21 08:43:00,
2013-06-21 04:48:00,69.4,62.3,29.15,SW,224,0.0,0.0,78,0.00,,SKC,0.00,VWS V14.00,2013-06-21 08:48:00,
2013-06-21 04:53:00,69.4,62.3,29.15,SW,224,0.0,0.0,78,0.00,,SKC,0.00,VWS V14.00,2013-06-21 08:53:00,
2013-06-21 04:58:00,69.4,62.3,29.15,SW,224,0.0,0.0,78,0.00,,SKC,0.00,VWS V14.00,2013-06-21 08:58:00,
2013-06-21 05:03:00,69.4,62.3,29.15,SW,224,0.0,0.0,78,0.00,,SKC,0.00,VWS V14.00,2013-06-21 09:03:00,
2013-06-21 05:08:00,69.4,62.7,29.15,SW,224,0.0,0.0,79,0.00,,SKC,0.00,VWS V14.00,2013-06-21 09:08:00,
2013-06-21 05:13:00,69.4,62.7,29.15,SW,224,0.0,0.0,79,0.00,,SKC,0.00,VWS V14.00,2013-06-21 09:13:00,
2013-06-21 05:18:00,69.4,62.7,29.15,SW,224,0.0,0.0,79,0.00,,SKC,0.00,VWS V14.00,2013-06-21 09:18:00,
2013-06-21 05:23:00,69.4,62.7,29.15,SW,224,0.0,0.0,79,0.00,,SKC,0.00,VWS V14.00,2013-06-21 09:23:00,
2013-06-21 05:28:00,69.3,62.5,29.15,SW,224,0.0,0.0,79,0.00,,SKC,0.00,VWS V14.00,2013-06-21 09:28:00,
2013-06-21 05:33:00,69.3,62.5,29.15,SW,224,0.0,0.0,79,0.00,,SKC,0.00,VWS V14.00,2013-06-21 09:33:00,
2013-06-21 05:38:00,69.3,62.5,29.15,SW,224,0.0,0.0,79,0.00,,SKC,0.00,VWS V14.00,2013-06-21 09:38:00,
2013-06-21 05:43:00,69.3,62.5,29.15,SW,224,0.0,0.0,79,0.00,,SKC,0.00,VWS V14.00,2013-06-21 09:43:00,
2013-06-21 05:48:00,69.1,62.3,29.18,SW,224,0.0,0.0,79,0.00,,SKC,0.00,VWS V14.00,2013-06-21 09:48:00,
2013-06-21 05:53:00,69.1,62.3,29.18,SW,224,0.0,0.0,79,0.00,,SKC,0.00,VWS V14.00,2013-06-21 09:53:00,
2013-06-21 05:58:00,69.1,62.3,29.18,SW,224,0.0,0.0,79,0.00,,SKC,0.00,VWS V14.00,2013-06-21 09:58:00,
2013-06-21 06:03:00,69.1,62.3,29.18,SW,224,0.0,0.0,79,0.00,,SKC,0.00,VWS V14.00,2013-06-21 10:03:00,
2013-06-21 06:08:00,69.1,62.3,29.18,SW,224,0.0,0.0,79,0.00,,SKC,0.00,VWS V14.00,2013-06-21 10:08:00,
2013-06-21 06:13:00,69.1,62.3,29.18,SW,224,0.0,0.0,79,0.00,,SKC,0.00,VWS V14.00,2013-06-21 10:13:00,
2013-06-21 06:19:00,69.1,62.3,29.18,SW,224,0.0,0.0,79,0.00,,SKC,0.00,VWS V14.00,2013-06-21 10:19:00,
2013-06-21 06:24:00,69.1,62.3,29.18,SW,224,0.0,0.0,79,0.00,,SKC,0.00,VWS V14.00,2013-06-21 10:24:00,
2013-06-21 06:29:00,69.1,62.3,29.18,SW,224,0.0,0.0,79,0.00,,SKC,0.00,VWS V14.00,2013-06-21 10:29:00,
2013-06-21 06:34:00,69.1,62.7,29.18,SW,224,0.0,0.0,80,0.00,,SKC,0.00,VWS V14.00,2013-06-21 10:34:00,
2013-06-21 06:39:00,69.1,62.7,29.18,SW,224,0.0,0.0,80,0.00,,SKC,0.00,VWS V14.00,2013-06-21 10:39:00,
2013-06-21 06:44:00,69.1,62.7,29.18,SW,224,0.0,0.0,80,0.00,,SKC,0.00,VWS V14.00,2013-06-21 10:44:00,
2013-06-21 06:49:00,69.1,62.7,29.18,SW,224,0.0,0.0,80,0.00,,SKC,0.00,VWS V14.00,2013-06-21 10:49:00,
2013-06-21 06:54:00,69.3,62.8,29.18,SW,224,0.0,0.0,80,0.00,,SKC,0.00,VWS V14.00,2013-06-21 10:54:00,
2013-06-21 06:59:00,69.3,62.8,29.18,SW,224,0.0,0.0,80,0.00,,SKC,0.00,VWS V14.00,2013-06-21 10:59:00,
2013-06-21 07:04:00,69.4,63.0,29.18,SW,224,0.0,0.0,80,0.00,,SKC,0.00,VWS V14.00,2013-06-21 11:04:00,
2013-06-21 07:09:00,69.4,63.0,29.18,SW,224,0.0,0.0,80,0.00,,SKC,0.00,VWS V14.00,2013-06-21 11:09:00,
2013-06-21 07:14:00,69.6,63.5,29.18,SW,224,0.0,0.0,81,0.00,,SKC,0.00,VWS V14.00,2013-06-21 11:14:00,
2013-06-21 07:19:00,69.8,63.4,29.18,SW,224,0.0,0.0,80,0.00,,SKC,0.00,VWS V14.00,2013-06-21 11:19:00,
2013-06-21 07:24:00,70.0,63.9,29.18,SW,224,0.0,0.0,81,0.00,,SKC,0.00,VWS V14.00,2013-06-21 11:24:00,
2013-06-21 07:29:00,70.2,64.1,29.18,SW,224,0.0,0.0,81,0.00,,SKC,0.00,VWS V14.00,2013-06-21 11:29:00,
2013-06-21 07:34:00,70.3,64.2,29.18,SW,224,0.0,0.0,81,0.00,,SKC,0.00,VWS V14.00,2013-06-21 11:34:00,
2013-06-21 07:39:00,70.5,64.4,29.18,SW,224,0.0,0.0,81,0.00,,SKC,0.00,VWS V14.00,2013-06-21 11:39:00,
2013-06-21 07:44:00,70.7,64.6,29.18,SW,224,0.0,0.0,81,0.00,,SKC,0.00,VWS V14.00,2013-06-21 11:44:00,
2013-06-21 07:49:00,70.7,64.6,29.21,SW,224,0.0,0.0,81,0.00,,SKC,0.00,VWS V14.00,2013-06-21 11:49:00,
2013-06-21 07:54:00,70.7,64.6,29.21,SW,230,0.0,0.0,81,0.00,,SKC,0.00,VWS V14.00,2013-06-21 11:54:00,
2013-06-21 07:59:00,70.9,64.8,29.21,SW,232,0.0,0.0,81,0.00,,SKC,0.00,VWS V14.00,2013-06-21 11:59:00,
2013-06-21 08:04:00,71.1,64.9,29.21,SW,232,0.0,0.0,81,0.00,,SKC,0.00,VWS V14.00,2013-06-21 12:04:00,
2013-06-21 08:09:00,71.2,65.1,29.21,NNE,32,0.0,4.0,81,0.00,,SKC,0.00,VWS V14.00,2013-06-21 12:09:00,
2013-06-21 08:14:00,71.4,65.3,29.21,NNE,32,0.0,0.0,81,0.00,,SKC,0.00,VWS V14.00,2013-06-21 12:14:00,
2013-06-21 08:19:00,71.6,65.5,29.21,NNE,32,0.0,0.0,81,0.00,,SKC,0.00,VWS V14.00,2013-06-21 12:19:00,
2013-06-21 08:24:00,71.8,65.6,29.21,NNE,32,0.0,0.0,81,0.00,,SKC,0.00,VWS V14.00,2013-06-21 12:24:00,
2013-06-21 08:29:00,72.0,65.5,29.21,NE,39,0.0,0.0,80,0.00,,SKC,0.00,VWS V14.00,2013-06-21 12:29:00,
2013-06-21 08:34:00,72.0,65.5,29.21,NE,39,0.0,0.0,80,0.00,,SKC,0.00,VWS V14.00,2013-06-21 12:34:00,
2013-06-21 08:39:00,72.0,65.5,29.21,NE,39,0.0,0.0,80,0.00,,SKC,0.00,VWS V14.00,2013-06-21 12:39:00,
2013-06-21 08:44:00,72.0,65.5,29.21,NE,39,0.0,0.0,80,0.00,,SKC,0.00,VWS V14.00,2013-06-21 12:44:00,
2013-06-21 08:49:00,72.1,65.6,29.21,NE,39,0.0,0.0,80,0.00,,SKC,0.00,VWS V14.00,2013-06-21 12:49:00,
2013-06-21 08:54:00,72.3,65.8,29.21,NE,39,0.0,0.0,80,0.00,,SKC,0.00,VWS V14.00,2013-06-21 12:54:00,
2013-06-21 08:59:00,72.7,66.2,29.21,NE,39,0.0,0.0,80,0.00,,SKC,0.00,VWS V14.00,2013-06-21 12:59:00,
2013-06-21 09:04:00,72.9,66.3,29.21,NE,39,0.0,0.0,80,0.00,,SKC,0.00,VWS V14.00,2013-06-21 13:04:00,
2013-06-21 09:09:00,72.9,66.3,29.21,NNE,32,0.0,0.0,80,0.00,,SKC,0.00,VWS V14.00,2013-06-21 13:09:00,
2013-06-21 09:14:00,73.0,66.2,29.21,NNE,31,0.0,0.0,79,0.00,,SKC,0.00,VWS V14.00,2013-06-21 13:14:00,
2013-06-21 09:19:00,73.0,66.2,29.21,NNE,31,0.0,0.0,79,0.00,,SKC,0.00,VWS V14.00,2013-06-21 13:19:00,
2013-06-21 09:24:00,73.4,66.5,29.21,NNE,31,0.0,0.0,79,0.00,,SKC,0.00,VWS V14.00,2013-06-21 13:24:00,
2013-06-21 09:29:00,73.8,66.8,29.21,NNE,31,0.0,0.0,79,0.00,,SKC,0.00,VWS V14.00,2013-06-21 13:29:00,
2013-06-21 09:34:00,73.9,66.7,29.21,NE,39,0.0,0.0,78,0.00,,SKC,0.00,VWS V14.00,2013-06-21 13:34:00,
2013-06-21 09:39:00,74.1,66.8,29.21,NE,39,0.0,0.0,78,0.00,,SKC,0.00,VWS V14.00,2013-06-21 13:39:00,
2013-06-21 09:44:00,74.5,66.8,29.21,NE,36,0.0,3.1,77,0.00,,SKC,0.00,VWS V14.00,2013-06-21 13:44:00,
2013-06-21 09:49:00,75.0,67.3,29.21,NE,40,3.2,3.6,77,0.00,,SKC,0.00,VWS V14.00,2013-06-21 13:49:00,
2013-06-21 09:54:00,75.6,67.5,29.21,NNE,32,3.8,4.9,76,0.00,,SKC,0.00,VWS V14.00,2013-06-21 13:54:00,
2013-06-21 09:59:00,75.9,67.4,29.21,NE,41,3.8,4.9,75,0.00,,SKC,0.00,VWS V14.00,2013-06-21 13:59:00,
2013-06-21 10:04:00,76.3,67.4,29.21,ENE,66,0.0,4.9,74,0.00,,SKC,0.00,VWS V14.00,2013-06-21 14:04:00,
2013-06-21 10:09:00,76.8,67.9,29.21,SW,230,0.0,4.9,74,0.00,,SKC,0.00,VWS V14.00,2013-06-21 14:09:00,
2013-06-21 10:14:00,76.8,67.5,29.21,NNE,29,0.0,0.0,73,0.00,,SKC,0.00,VWS V14.00,2013-06-21 14:14:00,
2013-06-21 10:19:00,76.8,67.5,29.21,East,89,0.0,0.0,73,0.00,,SKC,0.00,VWS V14.00,2013-06-21 14:19:00,
2013-06-21 10:24:00,76.6,67.3,29.21,South,176,0.0,0.0,73,0.00,,SKC,0.00,VWS V14.00,2013-06-21 14:24:00,
2013-06-21 10:29:00,76.8,67.1,29.21,NE,49,0.0,0.0,72,0.00,,SKC,0.00,VWS V14.00,2013-06-21 14:29:00,
2013-06-21 10:34:00,76.8,67.1,29.21,NNE,33,0.0,0.0,72,0.00,,SKC,0.00,VWS V14.00,2013-06-21 14:34:00,
2013-06-21 10:39:00,77.0,66.1,29.21,NE,36,0.0,4.9,69,0.00,,SKC,0.00,VWS V14.00,2013-06-21 14:39:00,
2013-06-21 10:44:00,77.0,66.1,29.21,NE,35,2.7,4.9,69,0.00,,SKC,0.00,VWS V14.00,2013-06-21 14:44:00,
2013-06-21 10:49:00,77.0,66.1,29.21,NE,37,0.0,4.9,69,0.00,,SKC,0.00,VWS V14.00,2013-06-21 14:49:00,
2013-06-21 10:54:00,77.0,66.1,29.21,NE,37,0.0,0.0,69,0.00,,SKC,0.00,VWS V14.00,2013-06-21 14:54:00,
2013-06-21 10:59:00,77.4,66.4,29.21,NE,37,0.0,0.0,69,0.00,,SKC,0.00,VWS V14.00,2013-06-21 14:59:00,
2013-06-21 11:04:00,77.9,66.9,29.21,NE,36,0.0,0.0,69,0.00,,SKC,0.00,VWS V14.00,2013-06-21 15:04:00,
2013-06-21 11:09:00,78.4,67.0,29.21,NE,36,0.0,0.0,68,0.00,,SKC,0.00,VWS V14.00,2013-06-21 15:09:00,
2013-06-21 11:15:00,78.6,67.2,29.21,NE,42,0.0,0.0,68,0.00,,SKC,0.00,VWS V14.00,2013-06-21 15:15:00,
2013-06-21 11:20:00,79.0,67.5,29.21,SSW,202,0.0,0.0,68,0.00,,SKC,0.00,VWS V14.00,2013-06-21 15:20:00,
2013-06-21 11:25:00,79.2,67.3,29.21,SSW,198,0.0,0.0,67,0.00,,SKC,0.00,VWS V14.00,2013-06-21 15:25:00,
2013-06-21 11:30:00,79.3,67.4,29.21,SSW,198,0.0,0.0,67,0.00,,SKC,0.00,VWS V14.00,2013-06-21 15:30:00,
2013-06-21 11:35:00,79.2,67.3,29.21,SSW,199,0.0,0.0,67,0.00,,SKC,0.00,VWS V14.00,2013-06-21 15:35:00,
2013-06-21 11:40:00,79.5,68.0,29.21,SSW,199,0.0,0.0,68,0.00,,SKC,0.00,VWS V14.00,2013-06-21 15:40:00,
2013-06-21 11:45:00,79.9,68.4,29.21,SSW,199,0.0,0.0,68,0.00,,SKC,0.00,VWS V14.00,2013-06-21 15:45:00,
2013-06-21 11:50:00,80.1,68.1,29.21,SSW,199,0.0,0.0,67,0.00,,SKC,0.00,VWS V14.00,2013-06-21 15:50:00,
2013-06-21 11:55:00,80.2,67.9,29.21,South,183,0.0,0.0,66,0.00,,SKC,0.00,VWS V14.00,2013-06-21 15:55:00,
2013-06-21 12:00:00,80.1,67.2,29.21,South,183,0.0,0.0,65,0.00,,SKC,0.00,VWS V14.00,2013-06-21 16:00:00,
2013-06-21 12:05:00,79.9,67.1,29.21,NE,50,0.0,0.0,65,0.00,,SKC,0.00,VWS V14.00,2013-06-21 16:05:00,
2013-06-21 12:10:00,80.2,67.4,29.21,NE,50,0.0,0.0,65,0.00,,SKC,0.00,VWS V14.00,2013-06-21 16:10:00,
2013-06-21 12:15:00,81.0,67.7,29.21,NNE,32,0.0,0.0,64,0.00,,SKC,0.00,VWS V14.00,2013-06-21 16:15:00,
2013-06-21 12:20:00,81.7,68.3,29.21,SSW,201,0.0,0.0,64,0.00,,SKC,0.00,VWS V14.00,2013-06-21 16:20:00,
2013-06-21 12:25:00,81.9,68.0,29.21,ESE,122,0.0,0.0,63,0.00,,SKC,0.00,VWS V14.00,2013-06-21 16:25:00,
2013-06-21 12:30:00,81.9,68.0,29.21,ESE,122,0.0,0.0,63,0.00,,SKC,0.00,VWS V14.00,2013-06-21 16:30:00,
2013-06-21 12:35:00,81.9,67.6,29.21,ENE,61,0.0,0.0,62,0.00,,SKC,0.00,VWS V14.00,2013-06-21 16:35:00,
2013-06-21 12:40:00,81.9,67.1,29.21,NNE,21,0.0,3.6,61,0.00,,SKC,0.00,VWS V14.00,2013-06-21 16:40:00,
2013-06-21 12:45:00,82.6,67.8,29.21,NE,38,0.0,2.7,61,0.00,,SKC,0.00,VWS V14.00,2013-06-21 16:45:00,
2013-06-21 12:50:00,83.7,67.8,29.21,NE,38,0.0,0.0,59,0.00,,SKC,0.00,VWS V14.00,2013-06-21 16:50:00,
2013-06-21 12:55:00,84.4,67.5,29.21,NNE,31,0.0,3.6,57,0.00,,SKC,0.00,VWS V14.00,2013-06-21 16:55:00,
2013-06-21 13:00:00,84.0,67.2,29.21,NE,38,0.0,0.0,57,0.00,,SKC,0.00,VWS V14.00,2013-06-21 17:00:00,
2013-06-21 13:05:00,83.3,64.9,29.21,North,11,4.3,5.4,54,0.00,,SKC,0.00,VWS V14.00,2013-06-21 17:05:00,
2013-06-21 13:16:00,84.0,65.6,29.21,ENE,72,0.0,3.6,54,0.00,,SKC,0.00,VWS V14.00,2013-06-21 17:16:00,
2013-06-21 13:21:00,84.0,64.5,29.21,NE,48,0.0,2.7,52,0.00,,SKC,0.00,VWS V14.00,2013-06-21 17:21:00,
2013-06-21 13:26:00,83.5,64.0,29.21,NE,38,0.0,2.7,52,0.00,,SKC,0.00,VWS V14.00,2013-06-21 17:26:00,
2013-06-21 13:31:00,82.9,63.0,29.21,NE,43,3.8,3.8,51,0.00,,SKC,0.00,VWS V14.00,2013-06-21 17:31:00,
2013-06-21 13:36:00,82.2,62.3,29.21,NNW,332,0.0,3.6,51,0.00,,SKC,0.00,VWS V14.00,2013-06-21 17:36:00,
2013-06-21 13:46:00,81.3,62.6,29.21,NNE,30,0.0,3.6,53,0.00,,SKC,0.00,VWS V14.00,2013-06-21 17:46:00,
2013-06-21 13:50:00,81.1,62.4,29.21,NNE,29,0.0,3.6,53,0.00,,SKC,0.00,VWS V14.00,2013-06-21 17:50:00,
2013-06-21 13:51:00,81.1,62.4,29.21,NNE,29,0.0,0.0,53,0.00,,SKC,0.00,VWS V14.00,2013-06-21 17:51:00,
2013-06-21 13:56:00,81.0,62.2,29.21,NNE,29,0.0,0.0,53,0.00,,SKC,0.00,VWS V14.00,2013-06-21 17:56:00,
2013-06-21 14:00:00,81.1,62.4,29.21,NNE,29,0.0,0.0,53,0.00,,SKC,0.00,VWS V14.00,2013-06-21 18:00:00,
2013-06-21 14:10:00,81.7,64.0,29.21,South,170,0.0,0.0,55,0.00,,SKC,0.00,VWS V14.00,2013-06-21 18:10:00,
2013-06-21 14:20:00,82.2,64.5,29.21,SW,229,0.0,3.1,55,0.00,,SKC,0.00,VWS V14.00,2013-06-21 18:20:00,
2013-06-21 14:27:00,82.4,64.1,29.21,SW,228,0.0,0.0,54,0.00,,SKC,0.00,VWS V14.00,2013-06-21 18:27:00,
2013-06-21 14:32:00,82.6,64.3,29.21,South,188,3.2,4.9,54,0.00,,SKC,0.00,VWS V14.00,2013-06-21 18:32:00,
2013-06-21 14:37:00,82.8,65.0,29.18,SW,231,0.0,5.4,55,0.00,,SKC,0.00,VWS V14.00,2013-06-21 18:37:00,
2013-06-21 14:40:00,82.8,65.0,29.18,SW,225,0.0,5.4,55,0.00,,SKC,0.00,VWS V14.00,2013-06-21 18:40:00,
2013-06-21 14:47:00,82.9,65.1,29.18,South,181,3.2,4.0,55,0.00,,SKC,0.00,VWS V14.00,2013-06-21 18:47:00,
2013-06-21 14:50:00,83.3,65.5,29.18,North,0,4.3,4.3,55,0.00,,SKC,0.00,VWS V14.00,2013-06-21 18:50:00,
2013-06-21 14:57:00,83.8,65.4,29.18,WSW,241,3.8,5.4,54,0.00,,SKC,0.00,VWS V14.00,2013-06-21 18:57:00,
2013-06-21 15:02:00,83.8,65.4,29.18,SSE,148,0.0,0.0,54,0.00,,SKC,0.00,VWS V14.00,2013-06-21 19:02:00,
2013-06-21 15:07:00,84.0,65.6,29.18,South,190,0.0,4.0,54,0.00,,SKC,0.00,VWS V14.00,2013-06-21 19:07:00,
2013-06-21 15:10:00,84.0,65.6,29.18,SW,215,4.8,4.8,54,0.00,,SKC,0.00,VWS V14.00,2013-06-21 19:10:00,
2013-06-21 15:13:00,84.0,65.1,29.18,WSW,250,0.0,4.0,53,0.00,,SKC,0.00,VWS V14.00,2013-06-21 19:13:00,
2013-06-21 15:18:00,84.7,65.7,29.18,SSW,203,0.0,5.4,53,0.00,,SKC,0.00,VWS V14.00,2013-06-21 19:18:00,
2013-06-21 15:23:00,85.6,66.0,29.18,West,260,0.0,0.0,52,0.00,,SKC,0.00,VWS V14.00,2013-06-21 19:23:00,
2013-06-21 15:28:00,85.1,65.0,29.18,West,260,0.0,0.0,51,0.00,,SKC,0.00,VWS V14.00,2013-06-21 19:28:00,
2013-06-21 15:33:00,84.6,63.9,29.18,West,260,0.0,0.0,50,0.00,,SKC,0.00,VWS V14.00,2013-06-21 19:33:00,
2013-06-21 15:38:00,84.7,64.6,29.18,ESE,113,0.0,0.0,51,0.00,,SKC,0.00,VWS V14.00,2013-06-21 19:38:00,
2013-06-21 15:40:00,85.1,65.0,29.18,SSE,161,3.8,4.0,51,0.00,,SKC,0.00,VWS V14.00,2013-06-21 19:40:00,
2013-06-21 15:48:00,85.8,65.6,29.18,SE,135,0.0,3.1,51,0.00,,SKC,0.00,VWS V14.00,2013-06-21 19:48:00,
2013-06-21 15:53:00,86.4,66.1,29.18,WNW,286,0.0,0.0,51,0.00,,SKC,0.00,VWS V14.00,2013-06-21 19:53:00,
2013-06-21 15:58:00,86.5,65.7,29.18,East,83,0.0,0.0,50,0.00,,SKC,0.00,VWS V14.00,2013-06-21 19:58:00,
2013-06-21 16:03:00,86.5,65.7,29.18,SSW,211,0.0,3.1,50,0.00,,SKC,0.00,VWS V14.00,2013-06-21 20:03:00,
2013-06-21 16:08:00,86.4,65.0,29.18,NW,318,0.0,3.1,49,0.00,,SKC,0.00,VWS V14.00,2013-06-21 20:08:00,
2013-06-21 16:13:00,86.4,65.5,29.18,ESE,119,3.2,3.6,50,0.00,,SKC,0.00,VWS V14.00,2013-06-21 20:13:00,
2013-06-21 16:18:00,86.2,64.8,29.18,SSE,163,0.0,5.4,49,0.00,,SKC,0.00,VWS V14.00,2013-06-21 20:18:00,
2013-06-21 16:23:00,86.0,64.6,29.15,South,179,0.0,3.6,49,0.00,,SKC,0.00,VWS V14.00,2013-06-21 20:23:00,
2013-06-21 16:28:00,85.8,64.5,29.15,South,190,0.0,3.6,49,0.00,,SKC,0.00,VWS V14.00,2013-06-21 20:28:00,
2013-06-21 16:33:00,85.5,64.1,29.15,SW,215,0.0,0.0,49,0.00,,SKC,0.00,VWS V14.00,2013-06-21 20:33:00,
2013-06-21 16:38:00,84.9,63.7,29.15,North,8,0.0,0.0,49,0.00,,SKC,0.00,VWS V14.00,2013-06-21 20:38:00,
2013-06-21 16:49:00,84.2,63.6,29.15,South,185,4.3,4.3,50,0.00,,SKC,0.00,VWS V14.00,2013-06-21 20:49:00,
2013-06-21 16:58:00,83.7,63.6,29.15,SE,142,0.0,4.0,51,0.00,,SKC,0.00,VWS V14.00,2013-06-21 20:58:00,
2013-06-21 17:03:00,83.5,63.5,29.15,SE,141,0.0,0.0,51,0.00,,SKC,0.00,VWS V14.00,2013-06-21 21:03:00,
2013-06-21 17:08:00,83.3,63.3,29.15,SW,224,0.0,3.1,51,0.00,,SKC,0.00,VWS V14.00,2013-06-21 21:08:00,
2013-06-21 17:13:00,83.1,63.7,29.15,WSW,245,0.0,3.1,52,0.00,,SKC,0.00,VWS V14.00,2013-06-21 21:13:00,
2013-06-21 17:18:00,82.9,63.5,29.15,WSW,239,0.0,6.3,52,0.00,,SKC,0.00,VWS V14.00,2013-06-21 21:18:00,
2013-06-21 17:19:00,82.9,63.5,29.15,WSW,241,0.0,6.3,52,0.00,,SKC,0.00,VWS V14.00,2013-06-21 21:19:00,
2013-06-21 17:28:00,82.4,63.0,29.15,SSW,206,3.2,4.0,52,0.00,,SKC,0.00,VWS V14.00,2013-06-21 21:28:00,
2013-06-21 17:33:00,82.4,63.0,29.15,SSW,205,4.8,5.8,52,0.00,,SKC,0.00,VWS V14.00,2013-06-21 21:33:00,
2013-06-21 17:39:00,82.2,62.9,29.15,SSW,208,0.0,5.8,52,0.00,,SKC,0.00,VWS V14.00,2013-06-21 21:39:00,
2013-06-21 17:44:00,82.0,62.7,29.15,SE,131,0.0,5.8,52,0.00,,SKC,0.00,VWS V14.00,2013-06-21 21:44:00,
2013-06-21 17:49:00,81.9,62.5,29.15,WSW,241,0.0,5.8,52,0.00,,SKC,0.00,VWS V14.00,2013-06-21 21:49:00,
2013-06-21 17:54:00,81.7,62.4,29.15,SSW,205,0.0,5.8,52,0.00,,SKC,0.00,VWS V14.00,2013-06-21 21:54:00,
2013-06-21 17:59:00,81.3,62.0,29.15,WSW,253,0.0,5.8,52,0.00,,SKC,0.00,VWS V14.00,2013-06-21 21:59:00,
2013-06-21 18:04:00,81.1,62.4,29.15,South,182,0.0,0.0,53,0.00,,SKC,0.00,VWS V14.00,2013-06-21 22:04:00,
2013-06-21 18:09:00,81.0,62.2,29.15,South,182,0.0,0.0,53,0.00,,SKC,0.00,VWS V14.00,2013-06-21 22:09:00,
2013-06-21 18:14:00,80.8,62.1,29.15,SE,142,4.3,4.3,53,0.00,,SKC,0.00,VWS V14.00,2013-06-21 22:14:00,
2013-06-21 18:19:00,80.6,61.9,29.15,SSE,151,0.0,3.6,53,0.00,,SKC,0.00,VWS V14.00,2013-06-21 22:19:00,
2013-06-21 18:24:00,80.6,61.9,29.15,South,179,0.0,0.0,53,0.00,,SKC,0.00,VWS V14.00,2013-06-21 22:24:00,
2013-06-21 18:29:00,80.4,62.3,29.15,SW,230,0.0,0.0,54,0.00,,SKC,0.00,VWS V14.00,2013-06-21 22:29:00,
2013-06-21 18:34:00,80.4,62.3,29.15,SSE,163,0.0,0.0,54,0.00,,SKC,0.00,VWS V14.00,2013-06-21 22:34:00,
2013-06-21 18:39:00,80.4,62.3,29.15,SE,130,0.0,2.2,54,0.00,,SKC,0.00,VWS V14.00,2013-06-21 22:39:00,
2013-06-21 18:44:00,80.6,63.0,29.15,SE,130,0.0,0.0,55,0.00,,SKC,0.00,VWS V14.00,2013-06-21 22:44:00,
2013-06-21 18:49:00,80.6,62.4,29.12,South,174,4.3,4.9,54,0.00,,SKC,0.00,VWS V14.00,2013-06-21 22:49:00,
2013-06-21 18:54:00,80.6,62.4,29.12,SSW,213,0.0,2.7,54,0.00,,SKC,0.00,VWS V14.00,2013-06-21 22:54:00,
2013-06-21 18:59:00,80.8,62.6,29.12,South,177,0.0,4.0,54,0.00,,SKC,0.00,VWS V14.00,2013-06-21 22:59:00,
2013-06-21 19:04:00,80.8,62.6,29.12,ENE,68,0.0,0.0,54,0.00,,SKC,0.00,VWS V14.00,2013-06-21 23:04:00,
2013-06-21 19:09:00,81.0,63.3,29.12,SSW,206,0.0,0.0,55,0.00,,SKC,0.00,VWS V14.00,2013-06-21 23:09:00,
2013-06-21 19:14:00,81.1,63.5,29.12,SSW,206,0.0,0.0,55,0.00,,SKC,0.00,VWS V14.00,2013-06-21 23:14:00,
2013-06-21 19:19:00,81.3,63.6,29.12,SSE,153,3.8,3.8,55,0.00,,SKC,0.00,VWS V14.00,2013-06-21 23:19:00,
2013-06-21 19:24:00,81.5,63.8,29.12,SW,216,6.4,6.7,55,0.00,,SKC,0.00,VWS V14.00,2013-06-21 23:24:00,
2013-06-21 19:29:00,81.5,63.3,29.12,SW,224,4.8,6.7,54,0.00,,SKC,0.00,VWS V14.00,2013-06-21 23:29:00,
2013-06-21 19:34:00,81.3,62.6,29.15,NNE,32,0.0,5.8,53,0.00,,SKC,0.00,VWS V14.00,2013-06-21 23:34:00,
2013-06-21 19:39:00,80.8,62.1,29.15,SW,218,5.4,5.8,53,0.00,,SKC,0.00,VWS V14.00,2013-06-21 23:39:00,
2013-06-21 19:44:00,80.1,61.9,29.15,SSW,212,5.9,5.9,54,0.00,,SKC,0.00,VWS V14.00,2013-06-21 23:44:00,
2013-06-21 19:49:00,79.7,62.1,29.12,SSW,202,3.8,5.8,55,0.00,,SKC,0.00,VWS V14.00,2013-06-21 23:49:00,
2013-06-21 19:54:00,79.5,62.0,29.12,WSW,239,3.2,5.8,55,0.00,,SKC,0.00,VWS V14.00,2013-06-21 23:54:00,
2013-06-21 19:59:00,79.3,61.8,29.12,SW,221,0.0,5.8,55,0.00,,SKC,0.00,VWS V14.00,2013-06-21 23:59:00,
2013-06-21 20:04:00,79.2,62.1,29.12,South,183,0.0,0.0,56,0.00,,SKC,0.00,VWS V14.00,2013-06-22 00:04:00,
2013-06-21 20:09:00,78.8,62.3,29.12,South,183,0.0,0.0,57,0.00,,SKC,0.00,VWS V14.00,2013-06-22 00:09:00,
2013-06-21 20:14:00,78.4,62.5,29.12,NE,38,0.0,0.0,58,0.00,,SKC,0.00,VWS V14.00,2013-06-22 00:14:00,
2013-06-21 20:19:00,78.1,62.1,29.12,NE,37,0.0,0.0,58,0.00,,SKC,0.00,VWS V14.00,2013-06-22 00:19:00,
2013-06-21 20:24:00,77.7,61.8,29.12,NE,43,0.0,0.0,58,0.00,,SKC,0.00,VWS V14.00,2013-06-22 00:24:00,
2013-06-21 20:29:00,77.5,61.6,29.12,SW,222,0.0,0.0,58,0.00,,SKC,0.00,VWS V14.00,2013-06-22 00:29:00,
2013-06-21 20:34:00,77.5,61.6,29.12,NE,46,0.0,0.0,58,0.00,,SKC,0.00,VWS V14.00,2013-06-22 00:34:00,
2013-06-21 20:39:00,77.4,61.4,29.12,NE,46,0.0,0.0,58,0.00,,SKC,0.00,VWS V14.00,2013-06-22 00:39:00,
2013-06-21 20:44:00,77.2,61.3,29.12,NE,46,0.0,0.0,58,0.00,,SKC,0.00,VWS V14.00,2013-06-22 00:44:00,
2013-06-21 20:49:00,76.8,61.4,29.12,NE,46,0.0,0.0,59,0.00,,SKC,0.00,VWS V14.00,2013-06-22 00:49:00,
2013-06-21 20:54:00,76.5,61.1,29.12,NE,44,0.0,0.0,59,0.00,,SKC,0.00,VWS V14.00,2013-06-22 00:54:00,
2013-06-21 20:59:00,76.1,60.3,29.12,NNE,27,0.0,0.0,58,0.00,,SKC,0.00,VWS V14.00,2013-06-22 00:59:00,
2013-06-21 21:04:00,75.7,59.9,29.12,NNE,27,0.0,0.0,58,0.00,,SKC,0.00,VWS V14.00,2013-06-22 01:04:00,
2013-06-21 21:09:00,75.6,59.8,29.12,NNE,27,0.0,0.0,58,0.00,,SKC,0.00,VWS V14.00,2013-06-22 01:09:00,
2013-06-21 21:14:00,75.2,59.4,29.12,NNE,27,0.0,0.0,58,0.00,,SKC,0.00,VWS V14.00,2013-06-22 01:14:00,
2013-06-21 21:19:00,74.8,59.6,29.12,NNE,27,0.0,0.0,59,0.00,,SKC,0.00,VWS V14.00,2013-06-22 01:19:00,
2013-06-21 21:24:00,74.7,59.4,29.12,NNE,27,0.0,0.0,59,0.00,,SKC,0.00,VWS V14.00,2013-06-22 01:24:00,
2013-06-21 21:29:00,74.7,59.9,29.12,NNE,27,0.0,0.0,60,0.00,,SKC,0.00,VWS V14.00,2013-06-22 01:29:00,
2013-06-21 21:34:00,74.3,59.5,29.15,NNE,27,0.0,0.0,60,0.00,,SKC,0.00,VWS V14.00,2013-06-22 01:34:00,
2013-06-21 21:39:00,74.1,59.8,29.15,NNE,27,0.0,0.0,61,0.00,,SKC,0.00,VWS V14.00,2013-06-22 01:39:00,
2013-06-21 21:44:00,73.9,59.7,29.15,NNE,27,0.0,0.0,61,0.00,,SKC,0.00,VWS V14.00,2013-06-22 01:44:00,
2013-06-21 21:49:00,73.9,59.7,29.15,NNE,27,0.0,0.0,61,0.00,,SKC,0.00,VWS V14.00,2013-06-22 01:49:00,
2013-06-21 21:54:00,73.6,59.8,29.15,NNE,27,0.0,0.0,62,0.00,,SKC,0.00,VWS V14.00,2013-06-22 01:54:00,
2013-06-21 21:59:00,73.4,59.6,29.15,NNE,27,0.0,0.0,62,0.00,,SKC,0.00,VWS V14.00,2013-06-22 01:59:00,
2013-06-21 22:04:00,73.2,59.9,29.15,NNE,27,0.0,0.0,63,0.00,,SKC,0.00,VWS V14.00,2013-06-22 02:04:00,
2013-06-21 22:09:00,73.0,59.7,29.15,NNE,27,0.0,0.0,63,0.00,,SKC,0.00,VWS V14.00,2013-06-22 02:09:00,
2013-06-21 22:14:00,73.0,59.7,29.15,NNE,27,0.0,0.0,63,0.00,,SKC,0.00,VWS V14.00,2013-06-22 02:14:00,
2013-06-21 22:19:00,72.9,59.5,29.15,NNE,27,0.0,0.0,63,0.00,,SKC,0.00,VWS V14.00,2013-06-22 02:19:00,
2013-06-21 22:25:00,72.7,59.8,29.15,NNE,27,0.0,0.0,64,0.00,,SKC,0.00,VWS V14.00,2013-06-22 02:25:00,
2013-06-21 22:30:00,72.5,59.6,29.15,NNE,27,0.0,0.0,64,0.00,,SKC,0.00,VWS V14.00,2013-06-22 02:30:00,
2013-06-21 22:35:00,72.3,59.5,29.18,NNE,27,0.0,0.0,64,0.00,,SKC,0.00,VWS V14.00,2013-06-22 02:35:00,
2013-06-21 22:40:00,72.3,59.5,29.18,NNE,27,0.0,0.0,64,0.00,,SKC,0.00,VWS V14.00,2013-06-22 02:40:00,
2013-06-21 22:45:00,72.3,59.5,29.18,NNE,27,0.0,0.0,64,0.00,,SKC,0.00,VWS V14.00,2013-06-22 02:45:00,
2013-06-21 22:50:00,72.1,59.3,29.18,NNE,27,0.0,0.0,64,0.00,,SKC,0.00,VWS V14.00,2013-06-22 02:50:00,
2013-06-21 22:55:00,72.0,59.6,29.18,NNE,27,0.0,0.0,65,0.00,,SKC,0.00,VWS V14.00,2013-06-22 02:55:00,
2013-06-21 23:00:00,71.8,59.4,29.18,NNE,27,0.0,0.0,65,0.00,,SKC,0.00,VWS V14.00,2013-06-22 03:00:00,
2013-06-21 23:05:00,71.8,59.4,29.18,NNE,27,0.0,0.0,65,0.00,,SKC,0.00,VWS V14.00,2013-06-22 03:05:00,
2013-06-21 23:10:00,71.6,59.2,29.18,NNE,27,0.0,0.0,65,0.00,,SKC,0.00,VWS V14.00,2013-06-22 03:10:00,
2013-06-21 23:15:00,71.6,59.7,29.18,NNE,27,0.0,0.0,66,0.00,,SKC,0.00,VWS V14.00,2013-06-22 03:15:00,
2013-06-21 23:20:00,71.2,59.3,29.18,NNE,27,0.0,0.0,66,0.00,,SKC,0.00,VWS V14.00,2013-06-22 03:20:00,
2013-06-21 23:25:00,71.1,59.1,29.18,NNE,27,0.0,0.0,66,0.00,,SKC,0.00,VWS V14.00,2013-06-22 03:25:00,
2013-06-21 23:30:00,71.1,59.6,29.18,NNE,27,0.0,0.0,67,0.00,,SKC,0.00,VWS V14.00,2013-06-22 03:30:00,
2013-06-21 23:35:00,70.9,59.4,29.18,NNE,27,0.0,0.0,67,0.00,,SKC,0.00,VWS V14.00,2013-06-22 03:35:00,
2013-06-21 23:40:00,70.7,59.2,29.18,NNE,27,0.0,0.0,67,0.00,,SKC,0.00,VWS V14.00,2013-06-22 03:40:00,
2013-06-21 23:45:00,70.5,59.0,29.18,NNE,27,0.0,0.0,67,0.00,,SKC,0.00,VWS V14.00,2013-06-22 03:45:00,
2013-06-21 23:50:00,70.5,59.0,29.18,NNE,27,0.0,0.0,67,0.00,,SKC,0.00,VWS V14.00,2013-06-22 03:50:00,
2013-06-21 23:55:00,70.5,59.5,29.18,NNE,27,0.0,0.0,68,0.00,,SKC,0.00,VWS V14.00,2013-06-22 03:55:00,